Location: Chavenne
(46.6022°N, 3.2951°E)
Time: 20:00:31
(UTC+00:00)

Meteor 2-12 Rocket - Pass Details

Date: 09 April 2020
Orbit: 935 x 958 km, 82.5° (Epoch: 31 May)

Event Time Altitude Azimuth Distance (km) Brightness Sun altitude
Rises 20:46:38 0° 350° (N) 3,627 8.3 -22.1°
Reaches altitude 10° 20:49:08 10° 350° (N) 2,675 7.5 -22.5°
Maximum altitude 20:55:15 88° 263° (W) 948 4.4 -23.2°
Enters shadow 20:57:31 41° 175° (S) 1,324 4.8 -23.5°
